"Pseudo-MPEC" for P112g2V

Created 2020 Jul 10 15:07:06 UT using Find_Orb

Click here for an explanation of pseudo-MPECs

 
 Astrometry: 
     P112g2V  C2020 06 29B`NIMN^%DNg)wJ?(FVNfA\CdAstrometryJw2CYK?sTh(MUG/SK)F51
     P112g2V  C2020 06 29[r_0NK+redacted;1nJ5F62Y;Q-o@-wGgWVig/:pEclickf//;ZnF51
     P112g2V  C2020 06 29)o)T'pXI?R1=Sxtdg;s\erHt[=/PwlHlO#MEM`ollcX8dFS7\s0*F51
     P112g2V  C2020 06 29GkVuyDF+!sQN3t^8vD8)[tE%J7'ZfZ70v1M9gMherehm-LMFq^+SF51
     P112g2V  C2020 06 30Ybx8fisFVSfor7@44,h;yUigIPmPvoHexplanation5UUH=-:)wgF51
     P112g2V  C2020 06 30)-@u'.cgv$gRGTUxH_Nq-cLeCJ%!FdbA_iOHWLxXNRgLTLL4RP]vF51

Station data:
(F51) Pan-STARRS 1, Haleakala  (N20.707235 W156.255910)  US/Hawaii.
   Observers N. Primak, A. Schultz, S. Watters, J. Thiel, T. Goggia. Measurer
   PS1 Science Consortium. 1.8-m Ritchey-Chrétien + CCD.

Orbital elements:  P112g2V
   Perihelion 2020 Sep 24.101457 +/- 41.4 TT =  2:26:05 (JD 2459116.601457)
Epoch 2020 Jun 30.0 TT = JDT 2459030.5   Earth MOID: 0.2775   Ma: 0.0218
M 336.01809646 +/- 26               (J2000 ecliptic)          AutoNEOCP
n   0.27853075 +/- 0.261            Peri.  100.93938 +/- 60
a   2.32213402 +/- 1.45             Node   262.29909 +/- 19
e   0.4537422 +/- 0.237             Incl.    4.13227 +/- 1.1
P   3.54                   H 20.1   G  0.15   U 11.8  SR
q 1.26848363 +/- 0.395    Q 3.37578440 +/- 29.9
From 6 observations 2020 June 29-30 (23.6 hr); mean residual 0".11
Residuals in arcseconds: 
200629 F51  .24+  .10-    200629 F51  .06-  .04+    200630 F51  .12+  .03+    
200629 F51  .00   .05-    200629 F51  .19-  .12+    200630 F51  .11-  .04-    

Ephemerides (geocentric):
Date (UTC) HH   RA              Dec         delta   r     elong  mag " sig PA
---- -- -- --  -------------   -----------  ------ ------ -----  --- ---- ---
2020 07 10 15  22 30 13.999   -01 45 57.17  .60186 1.4749 129.6 21.2 2440 143
2020 07 10 16  22 30 17.932   -01 45 08.41  .60150 1.4747 129.6 21.2 2462 143
2020 07 10 17  22 30 21.864   -01 44 19.62  .60115 1.4745 129.6 21.2 2485 143
2020 07 10 18  22 30 25.795   -01 43 30.82  .60079 1.4743 129.6 21.2 2507 143
2020 07 10 19  22 30 29.726   -01 42 42.00  .60044 1.4741 129.6 21.2 2530 143
2020 07 10 20  22 30 33.656   -01 41 53.17  .60008 1.4739 129.7 21.2 2552 143
2020 07 10 21  22 30 37.585   -01 41 04.31  .59973 1.4737 129.7 21.2 2575 143
2020 07 10 22  22 30 41.514   -01 40 15.44  .59937 1.4735 129.7 21.2 2598 143
2020 07 10 23  22 30 45.442   -01 39 26.55  .59902 1.4733 129.7 21.2 2621 143
2020 07 11 00  22 30 49.370   -01 38 37.65  .59866 1.4731 129.7 21.2 2645 143
2020 07 11 01  22 30 53.296   -01 37 48.72  .59831 1.4729 129.8 21.2 2668 143
2020 07 11 02  22 30 57.223   -01 36 59.78  .59796 1.4727 129.8 21.2 2691 143
2020 07 11 03  22 31 01.148   -01 36 10.83  .59760 1.4725 129.8 21.2 2715 143
2020 07 11 04  22 31 05.073   -01 35 21.85  .59725 1.4723 129.8 21.2 2739 143
2020 07 11 05  22 31 08.997   -01 34 32.86  .59689 1.4721 129.8 21.2 2763 143
2020 07 11 06  22 31 12.921   -01 33 43.85  .59654 1.4719 129.9 21.2 2787 143
2020 07 11 07  22 31 16.844   -01 32 54.83  .59619 1.4717 129.9 21.2 2811 143
2020 07 11 08  22 31 20.766   -01 32 05.78  .59584 1.4715 129.9 21.2 2835 143
2020 07 11 09  22 31 24.687   -01 31 16.72  .59548 1.4713 129.9 21.2 2860 143
2020 07 11 10  22 31 28.608   -01 30 27.64  .59513 1.4711 129.9 21.2 2885 143
2020 07 11 11  22 31 32.529   -01 29 38.55  .59478 1.4709 129.9 21.2 2909 143
2020 07 11 12  22 31 36.448   -01 28 49.44  .59443 1.4707 130.0 21.2 2934 143
2020 07 11 13  22 31 40.367   -01 28 00.31  .59407 1.4705 130.0 21.2 2959 143
2020 07 11 14  22 31 44.286   -01 27 11.16  .59372 1.4703 130.0 21.2 2984 143
2020 07 11 15  22 31 48.203   -01 26 22.00  .59337 1.4702 130.0 21.2 3010 143
2020 07 11 16  22 31 52.121   -01 25 32.82  .59302 1.4700 130.0 21.2 3035 143
2020 07 11 17  22 31 56.037   -01 24 43.62  .59267 1.4698 130.1 21.2 3061 143
2020 07 11 18  22 31 59.953   -01 23 54.40  .59232 1.4696 130.1 21.2 3087 143
2020 07 11 19  22 32 03.868   -01 23 05.17  .59197 1.4694 130.1 21.2 3113 143
2020 07 11 20  22 32 07.782   -01 22 15.92  .59162 1.4692 130.1 21.2 3139 143
2020 07 11 21  22 32 11.696   -01 21 26.65  .59127 1.4690 130.1 21.2 3165 143
2020 07 11 22  22 32 15.609   -01 20 37.37  .59092 1.4688 130.1 21.2 3191 143
2020 07 11 23  22 32 19.521   -01 19 48.07  .59057 1.4686 130.2 21.2 3218 143
2020 07 12 00  22 32 23.433   -01 18 58.75  .59022 1.4684 130.2 21.2 3244 143
2020 07 12 01  22 32 27.344   -01 18 09.41  .58987 1.4682 130.2 21.2 3271 143
2020 07 12 02  22 32 31.255   -01 17 20.06  .58952 1.4680 130.2 21.2 3298 143
2020 07 12 03  22 32 35.165   -01 16 30.69  .58917 1.4678 130.2 21.2 3325 143
2020 07 12 04  22 32 39.074   -01 15 41.31  .58882 1.4676 130.3 21.2 3352 143
2020 07 12 05  22 32 42.982   -01 14 51.90  .58847 1.4674 130.3 21.2 3380 143
2020 07 12 06  22 32 46.890   -01 14 02.48  .58812 1.4672 130.3 21.2 3407 143
2020 07 12 07  22 32 50.797   -01 13 13.05  .58778 1.4670 130.3 21.2 3435 143
2020 07 12 08  22 32 54.704   -01 12 23.59  .58743 1.4668 130.3 21.2 3463 143
2020 07 12 09  22 32 58.609   -01 11 34.12  .58708 1.4666 130.3 21.1 3491 143
2020 07 12 10  22 33 02.515   -01 10 44.63  .58673 1.4664 130.4 21.1 3519 143
2020 07 12 11  22 33 06.419   -01 09 55.12  .58638 1.4662 130.4 21.1 3548 143
2020 07 12 12  22 33 10.323   -01 09 05.60  .58604 1.4660 130.4 21.1 3576 143
2020 07 12 13  22 33 14.226   -01 08 16.06  .58569 1.4658 130.4 21.1 3605 143
2020 07 12 14  22 33 18.128   -01 07 26.51  .58534 1.4656 130.4 21.1 3634 143